^^
Datos históricos de la estación: Murcia-Puente Tocinos
Diario Informe para Marzo 9, 2019 Unidades:  Métrico    Inglés   Ambas
Diario Semanal Mensual Anual Configurable
  Máximo: Mínimo: Media:
Temperatura: 20.7 °C 8.2 °C 12.7 °C
Punto de rocio: 7.1 °C 1.9 °C 4.4 °C
Humedad: 70% 30% 59%
Velocidad viento: 10.3km/h 0.0km/h 4.7km/h
Racha viento: 18.5km/h - -
Viento- - South
Presión: 1030.8 hPa 1026.1 hPa -
Precipitación: 0.0 mm    
Historical Graphs
 
 
Tabla de datos para Marzo 9, 2019
Hora Temperatura Punto de rocio Presión Viento Velocidad viento Racha viento Humedad Intensidad lluvia(por hora) Nubes
00:00 11.7 °C 5.8 °C 1026.1 hPa Calm   3.2 km/h 67% 0.0 mm CLR
00:05 11.7 °C 5.8 °C 1026.6 hPa Calm     67% 0.0 mm CLR
00:10 11.7 °C 6.0 °C 1026.6 hPa Calm     68% 0.0 mm CLR
00:15 11.7 °C 5.8 °C 1026.6 hPa Calm   3.7 km/h 67% 0.0 mm CLR
00:20 11.7 °C 5.8 °C 1026.8 hPa NE 2.3 km/h 3.7 km/h 67% 0.0 mm CLR
00:25 11.7 °C 5.8 °C 1026.8 hPa NE 2.3 km/h 5.6 km/h 67% 0.0 mm CLR
00:30 11.7 °C 5.8 °C 1026.8 hPa NE 2.3 km/h 5.6 km/h 67% 0.0 mm CLR
00:35 11.7 °C 5.8 °C 1027.0 hPa NE 2.3 km/h 7.4 km/h 67% 0.0 mm CLR
00:40 11.7 °C 5.6 °C 1027.0 hPa ESE 3.9 km/h 4.7 km/h 66% 0.0 mm CLR
00:45 11.7 °C 5.6 °C 1027.0 hPa South 3.9 km/h 7.4 km/h 66% 0.0 mm CLR
00:50 11.7 °C 5.6 °C 1027.1 hPa South 4.7 km/h 7.4 km/h 66% 0.0 mm CLR
00:55 11.7 °C 5.6 °C 1027.1 hPa South 4.7 km/h 5.6 km/h 66% 0.0 mm CLR
01:00 11.7 °C 5.6 °C 1027.1 hPa South 3.2 km/h 8.0 km/h 66% 0.0 mm CLR
01:05 11.7 °C 5.6 °C 1027.1 hPa South 3.9 km/h 5.6 km/h 66% 0.0 mm CLR
01:10 11.6 °C 5.4 °C 1027.1 hPa South 3.9 km/h 7.4 km/h 66% 0.0 mm CLR
01:15 11.6 °C 5.4 °C 1027.1 hPa South 3.9 km/h 5.6 km/h 66% 0.0 mm CLR
01:20 11.5 °C 5.4 °C 1027.1 hPa South 3.2 km/h 5.6 km/h 66% 0.0 mm CLR
01:25 11.4 °C 5.3 °C 1027.1 hPa South 3.2 km/h 6.4 km/h 66% 0.0 mm CLR
01:30 11.4 °C 5.1 °C 1027.1 hPa South 3.2 km/h 5.6 km/h 65% 0.0 mm CLR
01:35 11.4 °C 5.1 °C 1027.2 hPa South 3.2 km/h 7.4 km/h 65% 0.0 mm CLR
01:40 11.4 °C 5.1 °C 1027.2 hPa South 4.7 km/h 5.6 km/h 65% 0.0 mm CLR
01:45 11.4 °C 5.1 °C 1027.2 hPa South 4.7 km/h 5.6 km/h 65% 0.0 mm CLR
01:50 11.3 °C 4.9 °C 1027.3 hPa SW 3.2 km/h 7.4 km/h 65% 0.0 mm CLR
01:55 11.3 °C 4.9 °C 1027.3 hPa WSW 3.2 km/h 7.4 km/h 65% 0.0 mm CLR
02:00 11.2 °C 4.9 °C 1027.3 hPa SW 4.8 km/h 9.7 km/h 65% 0.0 mm CLR
02:05 11.3 °C 4.9 °C 1027.2 hPa SW 5.8 km/h 7.4 km/h 65% 0.0 mm CLR
02:10 11.3 °C 4.9 °C 1027.2 hPa SW 5.0 km/h 5.6 km/h 65% 0.0 mm CLR
02:15 11.2 °C 4.6 °C 1027.2 hPa SW 5.0 km/h 9.3 km/h 64% 0.0 mm CLR
02:20 11.2 °C 4.6 °C 1027.3 hPa SW 5.0 km/h 7.4 km/h 64% 0.0 mm CLR
02:25 11.1 °C 4.6 °C 1027.3 hPa SSW 5.0 km/h 9.3 km/h 64% 0.0 mm CLR
02:30 11.0 °C 4.4 °C 1027.3 hPa SW 5.8 km/h 7.4 km/h 64% 0.0 mm CLR
02:35 11.0 °C 4.4 °C 1027.3 hPa SW 5.8 km/h 7.4 km/h 64% 0.0 mm CLR
02:40 10.9 °C 4.3 °C 1027.3 hPa SW 5.0 km/h 7.4 km/h 64% 0.0 mm CLR
02:45 10.9 °C 4.3 °C 1027.3 hPa SW 5.0 km/h 7.4 km/h 64% 0.0 mm CLR
02:50 10.9 °C 4.3 °C 1027.4 hPa WSW 5.8 km/h 9.3 km/h 64% 0.0 mm CLR
02:55 10.9 °C 4.3 °C 1027.4 hPa SW 5.8 km/h 9.5 km/h 64% 0.0 mm CLR
03:00 10.8 °C 4.6 °C 1027.4 hPa WSW 4.8 km/h 9.7 km/h 65% 0.0 mm CLR
03:05 10.8 °C 4.5 °C 1027.4 hPa SW 5.8 km/h 7.4 km/h 65% 0.0 mm CLR
03:10 10.8 °C 4.3 °C 1027.4 hPa SW 4.7 km/h 5.6 km/h 64% 0.0 mm CLR
03:15 10.8 °C 4.3 °C 1027.4 hPa SSE 4.7 km/h 8.4 km/h 64% 0.0 mm CLR
03:20 10.7 °C 4.2 °C 1027.2 hPa South 5.0 km/h 7.4 km/h 64% 0.0 mm CLR
03:25 10.6 °C 4.1 °C 1027.2 hPa South 5.0 km/h 5.6 km/h 64% 0.0 mm CLR
03:30 10.4 °C 3.9 °C 1027.2 hPa South 4.7 km/h 7.4 km/h 64% 0.0 mm CLR
03:35 10.4 °C 3.9 °C 1027.3 hPa SSW 4.7 km/h 9.3 km/h 64% 0.0 mm CLR
03:40 10.4 °C 4.1 °C 1027.3 hPa SSW 5.8 km/h 9.3 km/h 65% 0.0 mm CLR
03:45 10.3 °C 4.0 °C 1027.3 hPa SSW 5.8 km/h 7.4 km/h 65% 0.0 mm CLR
03:50 10.3 °C 4.0 °C 1027.1 hPa SSW 5.8 km/h 7.4 km/h 65% 0.0 mm CLR
03:55 10.2 °C 3.9 °C 1027.1 hPa SSW 5.8 km/h 7.4 km/h 65% 0.0 mm CLR
04:00 10.2 °C 3.9 °C 1027.1 hPa SSW 4.8 km/h 8.0 km/h 65% 0.0 mm CLR
04:05 10.2 °C 3.9 °C 1027.1 hPa West 5.0 km/h 9.3 km/h 65% 0.0 mm CLR
04:10 10.1 °C 3.8 °C 1027.1 hPa SW 5.0 km/h 7.4 km/h 65% 0.0 mm CLR
04:15 10.1 °C 3.8 °C 1027.1 hPa SSW 5.0 km/h 7.6 km/h 65% 0.0 mm CLR
04:20 10.1 °C 3.8 °C 1027.1 hPa SSW 5.8 km/h 7.6 km/h 65% 0.0 mm CLR
04:25 10.1 °C 3.8 °C 1027.1 hPa WSW 5.8 km/h 7.4 km/h 65% 0.0 mm CLR
04:30 10.1 °C 3.6 °C 1027.1 hPa WSW 5.8 km/h 7.4 km/h 64% 0.0 mm CLR
04:35 10.1 °C 3.6 °C 1027.3 hPa West 5.8 km/h 7.4 km/h 64% 0.0 mm CLR
04:40 9.9 °C 3.4 °C 1027.3 hPa WSW 5.0 km/h 7.4 km/h 64% 0.0 mm CLR
04:45 9.8 °C 3.5 °C 1027.3 hPa WSW 5.0 km/h 5.6 km/h 65% 0.0 mm CLR
04:50 9.8 °C 3.5 °C 1027.4 hPa WSW 3.9 km/h 5.6 km/h 65% 0.0 mm CLR
04:55 9.7 °C 3.4 °C 1027.4 hPa WSW 3.9 km/h 6.4 km/h 65% 0.0 mm CLR
05:00 9.6 °C 3.5 °C 1027.4 hPa WSW 3.2 km/h 11.3 km/h 66% 0.0 mm CLR
05:05 9.4 °C 3.4 °C 1027.4 hPa WSW 4.7 km/h 5.6 km/h 66% 0.0 mm CLR
05:10 9.4 °C 3.6 °C 1027.4 hPa WSW 3.2 km/h 5.8 km/h 67% 0.0 mm CLR
05:15 9.5 °C 3.7 °C 1027.4 hPa WSW 3.2 km/h 7.4 km/h 67% 0.0 mm CLR
05:20 9.5 °C 3.4 °C 1027.5 hPa WSW 3.9 km/h 7.4 km/h 66% 0.0 mm CLR
05:25 9.6 °C 3.6 °C 1027.5 hPa WSW 3.9 km/h 7.4 km/h 66% 0.0 mm CLR
05:30 9.6 °C 3.6 °C 1027.5 hPa WSW 4.7 km/h 9.3 km/h 66% 0.0 mm CLR
05:35 9.6 °C 3.3 °C 1027.5 hPa WSW 4.7 km/h 5.6 km/h 65% 0.0 mm CLR
05:40 9.6 °C 3.3 °C 1027.5 hPa WSW 5.0 km/h 7.4 km/h 65% 0.0 mm CLR
05:45 9.6 °C 3.3 °C 1027.5 hPa WSW 5.0 km/h 7.4 km/h 65% 0.0 mm CLR
05:50 9.6 °C 3.3 °C 1027.6 hPa WSW 4.7 km/h 5.6 km/h 65% 0.0 mm CLR
05:55 9.6 °C 3.6 °C 1027.6 hPa WSW 4.7 km/h 7.4 km/h 66% 0.0 mm CLR
06:00 9.6 °C 3.6 °C 1027.6 hPa WSW 3.2 km/h 8.0 km/h 66% 0.0 mm CLR
06:05 9.5 °C 3.4 °C 1027.9 hPa WSW 3.9 km/h 3.9 km/h 66% 0.0 mm CLR
06:10 9.4 °C 3.4 °C 1027.9 hPa WSW 3.2 km/h 5.6 km/h 66% 0.0 mm CLR
06:15 9.3 °C 3.3 °C 1027.9 hPa WSW 3.2 km/h 7.4 km/h 66% 0.0 mm CLR
06:20 9.3 °C 3.3 °C 1027.9 hPa WSW 4.7 km/h 7.4 km/h 66% 0.0 mm CLR
06:25 9.3 °C 3.3 °C 1027.9 hPa WSW 4.7 km/h 7.6 km/h 66% 0.0 mm CLR
06:30 9.4 °C 3.2 °C 1027.9 hPa WSW 5.0 km/h 7.6 km/h 65% 0.0 mm CLR
06:35 9.5 °C 3.2 °C 1027.9 hPa West 5.0 km/h 7.4 km/h 65% 0.0 mm CLR
06:40 9.5 °C 3.2 °C 1027.9 hPa WSW 5.0 km/h 7.4 km/h 65% 0.0 mm CLR
06:45 9.4 °C 3.2 °C 1027.9 hPa West 5.0 km/h 7.4 km/h 65% 0.0 mm CLR
06:50 9.3 °C 3.1 °C 1028.2 hPa WSW 4.7 km/h 7.4 km/h 65% 0.0 mm CLR
06:55 9.2 °C 2.9 °C 1028.2 hPa WSW 4.7 km/h 7.4 km/h 65% 0.0 mm CLR
07:00 9.2 °C 2.9 °C 1028.2 hPa WSW 4.8 km/h 8.0 km/h 65% 0.0 mm CLR
07:05 9.2 °C 2.9 °C 1028.3 hPa West 5.0 km/h 9.3 km/h 65% 0.0 mm CLR
07:10 9.1 °C 3.1 °C 1028.3 hPa West 5.0 km/h 9.3 km/h 66% 0.0 mm CLR
07:15 8.9 °C 2.9 °C 1028.3 hPa WSW 5.0 km/h 8.4 km/h 66% 0.0 mm CLR
07:20 8.9 °C 2.9 °C 1028.6 hPa West 5.8 km/h 9.3 km/h 66% 0.0 mm CLR
07:25 8.8 °C 2.8 °C 1028.6 hPa West 5.8 km/h 9.3 km/h 66% 0.0 mm CLR
07:30 8.8 °C 2.8 °C 1028.6 hPa West 5.0 km/h 3.9 km/h 66% 0.0 mm CLR
07:35 8.8 °C 2.8 °C 1028.8 hPa West 5.0 km/h 6.9 km/h 66% 0.0 mm CLR
07:40 8.8 °C 2.8 °C 1028.8 hPa WSW 4.7 km/h 7.6 km/h 66% 0.0 mm CLR
07:45 8.9 °C 2.9 °C 1028.8 hPa South 4.7 km/h 7.4 km/h 66% 0.0 mm CLR
07:50 8.8 °C 3.2 °C 1029.1 hPa South 5.0 km/h 7.4 km/h 68% 0.0 mm CLR
07:55 8.5 °C 2.9 °C 1029.1 hPa South 5.0 km/h 9.3 km/h 68% 0.0 mm CLR
08:00 8.3 °C 3.2 °C 1029.1 hPa SSE 4.8 km/h 9.7 km/h 70% 0.0 mm CLR
08:05 8.2 °C 3.1 °C 1029.2 hPa SSE 5.8 km/h 7.4 km/h 70% 0.0 mm CLR
08:10 8.2 °C 3.1 °C 1029.2 hPa SSE 5.8 km/h 9.3 km/h 70% 0.0 mm CLR
08:15 8.3 °C 3.2 °C 1029.2 hPa SSE 5.8 km/h 5.6 km/h 70% 0.0 mm CLR
08:20 8.4 °C 3.2 °C 1029.4 hPa SSE 3.9 km/h 5.6 km/h 70% 0.0 mm CLR
08:25 8.7 °C 3.3 °C 1029.4 hPa SSE 3.9 km/h 3.7 km/h 69% 0.0 mm CLR
08:30 8.9 °C 3.3 °C 1029.4 hPa SSE 2.9 km/h 1.9 km/h 68% 0.0 mm CLR
08:35 9.3 °C 3.5 °C 1029.8 hPa SSE 2.9 km/h 3.9 km/h 67% 0.0 mm CLR
08:40 9.6 °C 3.3 °C 1029.8 hPa SSE 2.3 km/h 7.4 km/h 65% 0.0 mm CLR
08:45 9.9 °C 3.4 °C 1029.8 hPa WSW 2.3 km/h 7.4 km/h 64% 0.0 mm CLR
08:50 10.2 °C 3.4 °C 1030.0 hPa West 4.7 km/h 9.3 km/h 63% 0.0 mm CLR
08:55 10.4 °C 3.4 °C 1030.0 hPa WSW 4.7 km/h 9.3 km/h 62% 0.0 mm CLR
09:00 10.5 °C 3.3 °C 1030.0 hPa WSW 8.0 km/h 11.3 km/h 61% 0.0 mm CLR
09:05 10.7 °C 3.2 °C 1030.4 hPa WSW 6.9 km/h 11.1 km/h 60% 0.0 mm CLR
09:10 10.9 °C 3.4 °C 1030.4 hPa WSW 6.9 km/h 7.4 km/h 60% 0.0 mm CLR
09:15 11.1 °C 3.6 °C 1030.4 hPa WSW 6.9 km/h 5.8 km/h 60% 0.0 mm CLR
09:20 11.4 °C 3.9 °C 1030.5 hPa South 4.7 km/h 7.4 km/h 60% 0.0 mm CLR
09:25 11.7 °C 4.4 °C 1030.5 hPa South 4.7 km/h 4.7 km/h 61% 0.0 mm CLR
09:30 11.8 °C 4.3 °C 1030.5 hPa SE 4.7 km/h 9.3 km/h 60% 0.0 mm CLR
09:35 12.0 °C 4.2 °C 1030.5 hPa South 4.7 km/h 8.7 km/h 59% 0.0 mm CLR
09:40 12.2 °C 4.2 °C 1030.5 hPa SE 6.4 km/h 7.4 km/h 58% 0.0 mm CLR
09:45 12.4 °C 4.1 °C 1030.5 hPa South 6.4 km/h 11.1 km/h 57% 0.0 mm CLR
09:50 12.6 °C 4.3 °C 1030.7 hPa SE 5.8 km/h 7.4 km/h 57% 0.0 mm CLR
09:55 12.9 °C 3.8 °C 1030.7 hPa SSW 5.8 km/h 7.6 km/h 54% 0.0 mm CLR
10:00 13.1 °C 4.0 °C 1030.7 hPa SSW 4.8 km/h 9.7 km/h 54% 0.0 mm CLR
10:05 13.2 °C 3.8 °C 1030.7 hPa South 5.0 km/h 9.5 km/h 53% 0.0 mm CLR
10:10 13.3 °C 3.9 °C 1030.7 hPa WSW 6.4 km/h 7.4 km/h 53% 0.0 mm CLR
10:15 13.4 °C 3.7 °C 1030.7 hPa SW 6.4 km/h 11.1 km/h 52% 0.0 mm CLR
10:20 13.6 °C 3.9 °C 1030.8 hPa SW 5.8 km/h 11.1 km/h 52% 0.0 mm CLR
10:25 13.6 °C 3.9 °C 1030.8 hPa SW 5.8 km/h 9.3 km/h 52% 0.0 mm CLR
10:30 13.8 °C 4.1 °C 1030.8 hPa SW 6.4 km/h 9.3 km/h 52% 0.0 mm CLR
10:35 13.9 °C 3.9 °C 1030.8 hPa SSW 6.4 km/h 7.4 km/h 51% 0.0 mm CLR
10:40 14.3 °C 4.3 °C 1030.8 hPa SSW 6.4 km/h 9.5 km/h 51% 0.0 mm CLR
10:45 14.6 °C 4.3 °C 1030.8 hPa SSW 6.4 km/h 11.1 km/h 50% 0.0 mm CLR
10:50 14.6 °C 4.3 °C 1030.7 hPa South 7.6 km/h 8.4 km/h 50% 0.0 mm CLR
10:55 14.8 °C 4.2 °C 1030.7 hPa SSW 7.6 km/h 7.4 km/h 49% 0.0 mm CLR
11:00 14.9 °C 4.1 °C 1030.7 hPa SSW 3.2 km/h 9.7 km/h 48% 0.0 mm CLR
11:05 15.2 °C 3.9 °C 1030.7 hPa SW 4.7 km/h 11.1 km/h 47% 0.0 mm CLR
11:10 15.4 °C 4.1 °C 1030.7 hPa SW 4.7 km/h 7.6 km/h 47% 0.0 mm CLR
11:15 15.7 °C 4.1 °C 1030.7 hPa WSW 4.7 km/h 3.9 km/h 46% 0.0 mm CLR
11:20 16.1 °C 4.2 °C 1030.6 hPa SE 3.2 km/h 7.4 km/h 45% 0.0 mm CLR
11:25 16.6 °C 4.6 °C 1030.6 hPa ESE 3.2 km/h 5.6 km/h 45% 0.0 mm CLR
11:30 16.8 °C 4.2 °C 1030.6 hPa NW 3.2 km/h 7.6 km/h 43% 0.0 mm CLR
11:35 16.7 °C 4.1 °C 1030.6 hPa NW 3.2 km/h 7.4 km/h 43% 0.0 mm CLR
11:40 16.9 °C 3.9 °C 1030.6 hPa NW 3.9 km/h 5.6 km/h 42% 0.0 mm CLR
11:45 17.2 °C 3.8 °C 1030.6 hPa ENE 3.9 km/h 7.4 km/h 41% 0.0 mm CLR
11:50 17.3 °C 3.6 °C 1030.5 hPa NE 3.9 km/h 7.4 km/h 40% 0.0 mm CLR
11:55 17.6 °C 3.4 °C 1030.5 hPa ENE 3.9 km/h 3.7 km/h 39% 0.0 mm CLR
12:00 17.8 °C 3.3 °C 1030.5 hPa NNE 3.2 km/h 9.7 km/h 38% 0.0 mm CLR
12:05 17.7 °C 3.2 °C 1030.4 hPa West 3.9 km/h 5.6 km/h 38% 0.0 mm CLR
12:10 17.8 °C 3.3 °C 1030.4 hPa West 3.9 km/h 3.7 km/h 38% 0.0 mm CLR
12:15 18.2 °C 3.3 °C 1030.4 hPa ESE 3.9 km/h 9.3 km/h 37% 0.0 mm CLR
12:20 18.4 °C 3.1 °C 1030.2 hPa ESE 3.9 km/h 7.4 km/h 36% 0.0 mm CLR
12:25 18.4 °C 3.1 °C 1030.2 hPa ENE 3.9 km/h 7.4 km/h 36% 0.0 mm CLR
12:30 18.5 °C 3.1 °C 1030.2 hPa East 4.7 km/h 7.4 km/h 36% 0.0 mm CLR
12:35 18.8 °C 3.0 °C 1030.1 hPa SW 4.7 km/h 7.4 km/h 35% 0.0 mm CLR
12:40 18.8 °C 3.0 °C 1030.1 hPa WNW 4.7 km/h 7.4 km/h 35% 0.0 mm CLR
12:45 18.8 °C 2.2 °C 1030.1 hPa ESE 4.7 km/h 7.4 km/h 33% 0.0 mm CLR
12:50 18.9 °C 2.3 °C 1029.8 hPa ENE 5.0 km/h 7.4 km/h 33% 0.0 mm CLR
12:55 19.0 °C 1.9 °C 1029.8 hPa SE 5.0 km/h 5.6 km/h 32% 0.0 mm CLR
13:00 19.1 °C 2.4 °C 1029.8 hPa East 4.8 km/h 9.7 km/h 33% 0.0 mm CLR
13:05 19.2 °C 2.5 °C 1029.7 hPa ENE 5.0 km/h 7.4 km/h 33% 0.0 mm CLR
13:10 19.3 °C 2.2 °C 1029.7 hPa East 4.7 km/h 7.4 km/h 32% 0.0 mm CLR
13:15 19.6 °C 2.4 °C 1029.7 hPa East 4.7 km/h   32% 0.0 mm CLR
13:20 19.9 °C 2.3 °C 1029.5 hPa WNW 2.9 km/h 7.4 km/h 31% 0.0 mm CLR
13:25 19.8 °C 2.6 °C 1029.5 hPa WNW 2.9 km/h 7.4 km/h 32% 0.0 mm CLR
13:30 19.9 °C 2.7 °C 1029.5 hPa NE 5.0 km/h 9.3 km/h 32% 0.0 mm CLR
13:35 19.9 °C 2.3 °C 1029.2 hPa ENE 5.0 km/h 7.4 km/h 31% 0.0 mm CLR
13:40 20.1 °C 2.4 °C 1029.2 hPa East 4.7 km/h 5.6 km/h 31% 0.0 mm CLR
13:45 20.4 °C 2.7 °C 1029.2 hPa NE 4.7 km/h 10.0 km/h 31% 0.0 mm CLR
13:50 20.3 °C 2.6 °C 1028.9 hPa NE 4.7 km/h 9.3 km/h 31% 0.0 mm CLR
13:55 20.3 °C 2.6 °C 1028.9 hPa NE 4.7 km/h 3.7 km/h 31% 0.0 mm CLR
14:00 20.4 °C 2.2 °C 1028.9 hPa East 3.2 km/h 9.7 km/h 30% 0.0 mm CLR
14:05 20.7 °C 2.5 °C 1028.6 hPa ESE 3.9 km/h 9.5 km/h 30% 0.0 mm CLR
14:06 20.7 °C 2.5 °C 1028.6 hPa ESE 3.9 km/h 9.3 km/h 30% 0.0 mm CLR
19:44 16.6 °C 4.6 °C 1028.3 hPa North 8.7 km/h 14.8 km/h 45% 0.0 mm CLR
19:49 16.3 °C 4.7 °C 1028.6 hPa NNE 10.0 km/h 14.8 km/h 46% 0.0 mm CLR
19:54 16.1 °C 4.8 °C 1028.6 hPa NNE 10.0 km/h 16.7 km/h 47% 0.0 mm CLR
19:59 15.8 °C 4.8 °C 1028.6 hPa North 10.3 km/h 13.0 km/h 48% 0.0 mm CLR
20:04 15.6 °C 4.9 °C 1028.9 hPa North 10.3 km/h 11.1 km/h 49% 0.0 mm CLR
20:09 15.3 °C 4.9 °C 1028.9 hPa ENE 8.4 km/h 11.1 km/h 50% 0.0 mm CLR
20:14 15.1 °C 5.3 °C 1028.9 hPa NNE 8.4 km/h 16.7 km/h 52% 0.0 mm CLR
20:19 14.9 °C 5.4 °C 1029.0 hPa NE 8.7 km/h 13.0 km/h 53% 0.0 mm CLR
20:24 14.8 °C 5.8 °C 1029.0 hPa NE 8.7 km/h 14.8 km/h 55% 0.0 mm CLR
20:29 14.8 °C 6.1 °C 1029.0 hPa NE 7.6 km/h 13.0 km/h 56% 0.0 mm CLR
20:34 14.6 °C 6.4 °C 1029.2 hPa NE 7.6 km/h 11.1 km/h 58% 0.0 mm CLR
20:39 14.5 °C 6.6 °C 1029.2 hPa NE 9.5 km/h 13.0 km/h 59% 0.0 mm CLR
20:44 14.4 °C 6.7 °C 1029.2 hPa NE 9.5 km/h 18.5 km/h 60% 0.0 mm CLR
20:49 14.2 °C 6.8 °C 1029.4 hPa NE 10.3 km/h 14.8 km/h 61% 0.0 mm CLR
20:54 14.1 °C 6.9 °C 1029.4 hPa NE 10.3 km/h 13.0 km/h 62% 0.0 mm CLR
20:59 14.0 °C 6.8 °C 1029.4 hPa NNE 10.3 km/h 13.0 km/h 62% 0.0 mm CLR
21:04 13.9 °C 6.7 °C 1029.4 hPa ENE 10.3 km/h 14.8 km/h 62% 0.0 mm CLR
21:09 13.8 °C 6.9 °C 1029.4 hPa NE 9.5 km/h 11.1 km/h 63% 0.0 mm CLR
21:14 13.8 °C 6.9 °C 1029.4 hPa NNE 9.5 km/h 11.9 km/h 63% 0.0 mm CLR
21:19 13.7 °C 7.0 °C 1029.6 hPa NE 8.4 km/h 9.5 km/h 64% 0.0 mm CLR
21:24 13.6 °C 6.9 °C 1029.6 hPa NE 8.4 km/h 10.3 km/h 64% 0.0 mm CLR
21:29 13.5 °C 7.1 °C 1029.6 hPa NE 7.6 km/h 9.3 km/h 65% 0.0 mm CLR
21:34 13.4 °C 6.9 °C 1029.6 hPa NE 7.6 km/h 9.3 km/h 65% 0.0 mm CLR
21:39 13.4 °C 6.9 °C 1029.6 hPa NNE 6.4 km/h 7.4 km/h 65% 0.0 mm CLR
21:44 13.3 °C 7.1 °C 1029.6 hPa NNE 6.4 km/h 7.4 km/h 66% 0.0 mm CLR
21:49 13.3 °C 7.1 °C 1029.7 hPa NNW 3.9 km/h 7.4 km/h 66% 0.0 mm CLR
21:54 13.2 °C 7.0 °C 1029.7 hPa NNW 3.9 km/h 6.4 km/h 66% 0.0 mm CLR
21:59 13.1 °C 7.1 °C 1029.7 hPa WNW 3.9 km/h 7.4 km/h 67% 0.0 mm CLR
22:04 13.1 °C 7.1 °C 1029.8 hPa WNW 3.9 km/h 3.7 km/h 67% 0.0 mm CLR
22:09 13.1 °C 7.1 °C 1029.8 hPa WNW 2.9 km/h 5.6 km/h 67% 0.0 mm CLR
22:14 13.0 °C 7.0 °C 1029.8 hPa WNW 2.9 km/h 3.7 km/h 67% 0.0 mm CLR
22:19 12.9 °C 6.9 °C 1029.9 hPa WNW 2.3 km/h 3.7 km/h 67% 0.0 mm CLR
22:24 12.9 °C 6.9 °C 1029.9 hPa WNW 2.3 km/h   67% 0.0 mm CLR
22:29 12.9 °C 7.1 °C 1029.9 hPa Calm     68% 0.0 mm CLR
22:34 12.8 °C 7.1 °C 1030.0 hPa Calm     68% 0.0 mm CLR
22:39 12.8 °C 7.1 °C 1030.0 hPa Calm     68% 0.0 mm CLR
22:44 12.8 °C 6.8 °C 1030.0 hPa Calm     67% 0.0 mm CLR
22:49 12.7 °C 6.9 °C 1030.1 hPa Calm     68% 0.0 mm CLR
22:54 12.7 °C 6.9 °C 1030.1 hPa Calm     68% 0.0 mm CLR
22:59 12.6 °C 6.8 °C 1030.1 hPa Calm     68% 0.0 mm CLR
23:04 12.6 °C 6.6 °C 1030.2 hPa Calm   4.7 km/h 67% 0.0 mm CLR
23:09 12.6 °C 6.4 °C 1030.2 hPa WNW 2.3 km/h 6.4 km/h 66% 0.0 mm CLR
23:14 12.6 °C 6.6 °C 1030.2 hPa SW 2.3 km/h 5.6 km/h 67% 0.0 mm CLR
23:19 12.6 °C 6.8 °C 1030.1 hPa SW 3.2 km/h 1.9 km/h 68% 0.0 mm CLR
23:24 12.7 °C 6.9 °C 1030.1 hPa SW 3.2 km/h   68% 0.0 mm CLR
23:29 12.8 °C 7.1 °C 1030.1 hPa Calm     68% 0.0 mm CLR
23:34 12.8 °C 7.1 °C 1030.1 hPa Calm     68% 0.0 mm CLR
23:39 12.9 °C 6.9 °C 1030.1 hPa Calm   7.4 km/h 67% 0.0 mm CLR
23:44 12.9 °C 6.5 °C 1030.1 hPa Calm   7.4 km/h 65% 0.0 mm CLR
23:49 12.9 °C 6.2 °C 1030.0 hPa South 4.7 km/h 8.4 km/h 64% 0.0 mm CLR
23:54 12.9 °C 6.2 °C 1030.0 hPa SW 4.7 km/h 7.4 km/h 64% 0.0 mm CLR
23:59 12.9 °C 6.2 °C 1030.0 hPa SW 5.0 km/h 5.6 km/h 64% 0.0 mm CLR
Murcia-Puente Tocinos, España
Compliments of Weather Underground - 2.5 mb

La estación de MeteoMurcia.com, publica sus datos en los siguientes proyectos:

Weather Underground PWS IMURCIAP2 Meteoclimatic www.awekas.at

W3Counter
Web Analytics